(K88) GINOP-KHK, Piszkéstető  (N47.917622 E19.893600)  Hungary.  Observer K.
   Sárneczky. 0.60-m Schmidt + CCD.
(L01) Višnjan Observatory, Tičan  (N45.290900 E13.749300)  Croatia.
   Observers K. Korlević, E. Pettarin. Measurer E. Pettarin. 1.0-m f/2.9
   reflector + CCD.
(N55) Corona Borealis Observatory, Ngari  (N32.326059 E80.026230)  China.
(U69) iTelescope SRO Observatory, Auberry  (N37.070390 W119.413000)
   US/California. 0.61-m f/6.5 astrograph + CCD.
(Z84) Calar Alto-Schmidt  (N37.224049 W2.548210)  Spain.

Orbital elements:  ZTF03NI
   Perihelion 2019 Jun 16.478258 +/- 0.0418 TT = 11:28:41 (JD 2458650.978258)
Epoch 2019 Jun 24.0 TT = JDT 2458658.5   Ur: 0.0388           AutoNEOCP
M   0.00049141 +/- 0.00019          (J2000 ecliptic)
n   0.00006533 +/- 2.37e-5          Peri.  139.78920 +/- 0.015
a 610.539235 +/- 152                Node   180.12611 +/- 0.013
e   0.9963030 +/- 0.000896          Incl.  105.31504 +/- 0.0034
P  15085                   H 13.6   G  0.15   U  5.6  
q 2.25715426 +/- 0.000758    Q 1218.82131 +/- 217
From 99 observations 2019 Apr. 24-June 24; mean residual 0".58
Residuals in arcseconds: 
190424 I41  .24+  .18-    190602 033  .14+  .24+    190605 N55  .25-  .35-    
190424 I41  .06-  .44+    190602 C10  .61-  .25+    190605 N55  .11+  .05-    
190424 I41  .04-  .28+    190602 G40  .03-  .10+    190606 711  1.0+  .22+    
190424 I41  .43+  .03+    190602 G40  .23+  .09+    190606 711  .61+  .01+    
190530 I41  .08-  .45-    190602 G40  .12-  .39+    190606 711  .64+  .39-    
190530 I41  .20-  .39-    190602 N55  .40+  .15+    190606 N55  .12-  .06+    
190530 I41  .14-  .39-    190602 N55  .59+  .01-    190606 N55  .41+  .25+    
190530 I41  .12-  .21+    190602 N55  .67+  .44-    190606 N55  .11+  .08-    
190531 A77  .51+  .25-    190603 A71  1.1-  .29-    190607 N55  .17-  .42+    
190531 A77  .02+  .47-    190603 A71  .55-  .50-    190607 N55  .19-  .57+    
190531 A77  .20+  .18-    190603 L01  .84-  1.3+    190607 N55  .00   .01+    
190531 G40  .82+  1.9-    190603 033  .28-  .16+    190608 595  .23-  .29+    
190531 G40  .09-  .08+    190603 033  .09-  .16+    190608 595  .27-  .13+    
190531 C42  .08+  .61-    190603 033  .22+  .64-    190608 K88  .10-  .15+    
190531 C42  .58+  .04-    190603 A71  .32-  .72-    190608 K88  .41+  .11-    
190531 C42  .35+  .08-    190603 A71  .83-  .85-    190608 K88  .35+  .11-    
190531 C42  .22-  .29+    190603 L01  .06+  .12+    190608 106  1.7+  .48+    
190531 C42  .78-  .75+    190603 157  .59-  .17+    190608 106  .56+  1.9-    
190601 A71  .24-  .49-    190603 L01  .42+  .52-    190608 Z84  .29-  .13+    
190601 A71  1.0-  .22-    190603 157  .76-  .15+    190608 Z84  .36-  .21+    
190601 A71  1.3-  .33-    190603 U69  .16+  .29-    190608 Z84  .22-  .19+    
190601 A71  .77-  .35-    190603 U69  .24+  .24-    190608 Z84  .26+  .17+    
190601 033  .36-  .18+    190604 K61  .27+  .36+    190609 N55  .12+  .29-    
190601 033  .71-  .02-    190604 K61  .55+  .04+    190609 N55  .84+  .23-    
190601 G40  .55-  .72+    190604 K61  .41+  .28-    190609 N55  1.3+  .70-    
190601 G40  .07+  .64+    190604 A71  .97+  .16+    190610 K88  .40+  .24+    
190601 G40  .41-  .85+    190604 A71  1.3+  .09-    190610 K88  1.0+  .17+    
190601 186  1.2-  .05+    190604 705  .41-  .44-    190617 C95  .24-  .13+    
190601 186  .10+  .35+    190604 705  .11-  .56-    190617 C95  .13+  .48+    
190602 C10  2.0-  2.0+    190604 705  .31-  .20-    190617 C95  .49+  .13+    
190602 C10  1.0-  1.1+    190605 H06  .15+  .00     190624 850  .74-  .50-    
190602 033  .14-  .17-    190605 H06  .48+  .13-    190624 850  2.2-  1.5+    
190602 033  .38-  .14+    190605 N55  .46+  .05+    190624 850  1.1+  .63-    

Ephemerides (geocentric):
Date (UTC) HH   RA              Dec         delta   r     elong  mag " sig PA
---- -- -- --  -------------   -----------  ------ ------ -----  --- ---- ---
2019 06 24 19  01 31 39.716   +42 24 38.95  2.5877 2.2591  60.1 18.5 .329  34
2019 06 24 20  01 31 40.822   +42 24 20.62  2.5872 2.2592  60.1 18.5 .331  34
2019 06 24 21  01 31 41.927   +42 24 02.29  2.5866 2.2592  60.1 18.5 .333  34
2019 06 24 22  01 31 43.028   +42 23 43.94  2.5861 2.2592  60.1 18.5 .335  34
2019 06 24 23  01 31 44.128   +42 23 25.58  2.5855 2.2592  60.2 18.5 .337  34
2019 06 25 00  01 31 45.224   +42 23 07.22  2.5850 2.2592  60.2 18.5 .339  34
2019 06 25 01  01 31 46.318   +42 22 48.83  2.5844 2.2593  60.2 18.5 .341  34
2019 06 25 02  01 31 47.410   +42 22 30.44  2.5839 2.2593  60.3 18.5 .343  34
2019 06 25 03  01 31 48.499   +42 22 12.04  2.5834 2.2593  60.3 18.5 .345  34
2019 06 25 04  01 31 49.586   +42 21 53.63  2.5828 2.2593  60.3 18.5 .347  34
2019 06 25 05  01 31 50.670   +42 21 35.20  2.5823 2.2594  60.4 18.5 .349  34
2019 06 25 06  01 31 51.751   +42 21 16.76  2.5817 2.2594  60.4 18.5 .351  34
2019 06 25 07  01 31 52.830   +42 20 58.31  2.5812 2.2594  60.4 18.5 .353  34
2019 06 25 08  01 31 53.907   +42 20 39.86  2.5806 2.2594  60.4 18.5 .355  34
2019 06 25 09  01 31 54.981   +42 20 21.38  2.5801 2.2594  60.5 18.5 .357  34
2019 06 25 10  01 31 56.052   +42 20 02.90  2.5796 2.2595  60.5 18.5 .359  34
2019 06 25 11  01 31 57.121   +42 19 44.41  2.5790 2.2595  60.5 18.5 .361  34
2019 06 25 12  01 31 58.187   +42 19 25.90  2.5785 2.2595  60.6 18.5 .363  34
2019 06 25 13  01 31 59.251   +42 19 07.38  2.5779 2.2595  60.6 18.5 .365  34
2019 06 25 14  01 32 00.312   +42 18 48.85  2.5774 2.2595  60.6 18.5 .367  34
2019 06 25 15  01 32 01.371   +42 18 30.31  2.5768 2.2596  60.7 18.5 .369  34
2019 06 25 16  01 32 02.427   +42 18 11.76  2.5763 2.2596  60.7 18.5 .372  34
2019 06 25 17  01 32 03.480   +42 17 53.20  2.5757 2.2596  60.7 18.5 .374  34
2019 06 25 18  01 32 04.531   +42 17 34.62  2.5752 2.2596  60.7 18.5 .376  34
2019 06 25 19  01 32 05.580   +42 17 16.04  2.5746 2.2597  60.8 18.5 .378  34
2019 06 25 20  01 32 06.626   +42 16 57.44  2.5741 2.2597  60.8 18.5 .380  34
2019 06 25 21  01 32 07.669   +42 16 38.83  2.5735 2.2597  60.8 18.5 .382  34
2019 06 25 22  01 32 08.710   +42 16 20.20  2.5730 2.2597  60.9 18.5 .384  34
2019 06 25 23  01 32 09.748   +42 16 01.57  2.5724 2.2597  60.9 18.5 .386  34
2019 06 26 00  01 32 10.784   +42 15 42.92  2.5719 2.2598  60.9 18.5 .389  34
2019 06 26 01  01 32 11.817   +42 15 24.27  2.5713 2.2598  60.9 18.5 .391  34
2019 06 26 02  01 32 12.848   +42 15 05.60  2.5708 2.2598  61.0 18.5 .393  34
2019 06 26 03  01 32 13.876   +42 14 46.92  2.5702 2.2598  61.0 18.5 .395  34
2019 06 26 04  01 32 14.901   +42 14 28.22  2.5697 2.2599  61.0 18.5 .397  34
2019 06 26 05  01 32 15.924   +42 14 09.52  2.5691 2.2599  61.1 18.5 .399  34
2019 06 26 06  01 32 16.944   +42 13 50.80  2.5686 2.2599  61.1 18.5 .402  34
2019 06 26 07  01 32 17.962   +42 13 32.07  2.5680 2.2599  61.1 18.5 .404  34
2019 06 26 08  01 32 18.977   +42 13 13.33  2.5675 2.2600  61.2 18.5 .406  34
2019 06 26 09  01 32 19.990   +42 12 54.58  2.5669 2.2600  61.2 18.5 .408  34
2019 06 26 10  01 32 21.000   +42 12 35.81  2.5664 2.2600  61.2 18.5 .411  34
2019 06 26 11  01 32 22.007   +42 12 17.03  2.5658 2.2600  61.2 18.5 .413  34
2019 06 26 12  01 32 23.012   +42 11 58.24  2.5653 2.2600  61.3 18.5 .415  34
2019 06 26 13  01 32 24.014   +42 11 39.44  2.5647 2.2601  61.3 18.5 .417  34
2019 06 26 14  01 32 25.014   +42 11 20.63  2.5642 2.2601  61.3 18.5 .420  34
2019 06 26 15  01 32 26.011   +42 11 01.80  2.5636 2.2601  61.4 18.5 .422  34
2019 06 26 16  01 32 27.005   +42 10 42.97  2.5631 2.2601  61.4 18.5 .424  34
2019 06 26 17  01 32 27.997   +42 10 24.12  2.5625 2.2602  61.4 18.5 .426  34
2019 06 26 18  01 32 28.987   +42 10 05.25  2.5620 2.2602  61.5 18.5 .429  34